This is the latest recevied weather packets stored in our database for station/object KB9HUO. If no packets are shown the sender has not sent any weather packets the latest 10 day(s).
| Time | Temp. | Humidity | Pressure | Rain* | Wind** | Luminosity | Snow |
|---|---|---|---|---|---|---|---|
| 1787939566 | 29.44° C | 44% | 1021.5 hPa | 0 mm | - | 738 W/m² | - |
| 1787939261 | 29.44° C | 48% | 1021.4 hPa | 0 mm | - | 740 W/m² | - |
| 1787938956 | 28.89° C | 51% | 1021.3 hPa | 0 mm | - | 747 W/m² | - |
| 1787938656 | 28.89° C | 53% | 1021.6 hPa | 0 mm | - | 742 W/m² | - |
| 1787938352 | 28.89° C | 53% | 1021.5 hPa | 0 mm | - | 743 W/m² | - |
| 1787938052 | 28.89° C | 56% | 1021.4 hPa | 0 mm | - | 751 W/m² | - |
| 1787937747 | 28.89° C | 59% | 1021.5 hPa | 0 mm | - | 744 W/m² | - |
| 1787937443 | 28.89° C | 58% | 1021.5 hPa | 0 mm | - | 702 W/m² | - |
| 1787937140 | 28.33° C | 60% | 1021.4 hPa | 0 mm | - | 605 W/m² | - |
| 1787936839 | 28.89° C | 59% | 1021.6 hPa | 0 mm | - | 718 W/m² | - |
| 1787936534 | 28.33° C | 59% | 1021.7 hPa | 0 mm | - | 736 W/m² | - |
| 1787936233 | 27.78° C | 63% | 1021.6 hPa | 0 mm | - | 732 W/m² | - |
| 1787935929 | 27.78° C | 59% | 1021.7 hPa | 0 mm | - | 726 W/m² | - |
| 1787935624 | 28.33° C | 61% | 1021.6 hPa | 0 mm | - | 722 W/m² | - |
| 1787935321 | 27.78° C | 60% | 1021.6 hPa | 0 mm | - | 716 W/m² | - |
| 1787935015 | 27.78° C | 64% | 1021.7 hPa | 0 mm | - | 616 W/m² | - |
| 1787934710 | 27.78° C | 63% | 1021.7 hPa | 0 mm | - | 698 W/m² | - |
| 1787934409 | 27.22° C | 62% | 1021.8 hPa | 0 mm | - | 692 W/m² | - |
| 1787934109 | 27.22° C | 66% | 1021.7 hPa | 0 mm | - | 688 W/m² | - |
| 1787933808 | 27.22° C | 65% | 1021.8 hPa | 0 mm | - | 674 W/m² | - |
| 1787933503 | 27.22° C | 65% | 1021.8 hPa | 0 mm | - | 663 W/m² | - |
| 1787933193 | 27.22° C | 67% | 1021.7 hPa | 0 mm | - | 657 W/m² | - |
| 1787932892 | 26.67° C | 69% | 1021.7 hPa | 0 mm | - | 644 W/m² | - |
| 1787932585 | 26.67° C | 66% | 1021.7 hPa | 0 mm | - | 643 W/m² | - |
| 1787932280 | 27.22° C | 68% | 1021.7 hPa | 0 mm | - | 600 W/m² | - |
* Rain latest hour (hover to see other rain measurements)
** Current wind speed in m/s (hover to see current wind gust speed)